Regional Weather Roundup
Issued by NWS

Home | Current Version | Previous Version | Text Only | Print | Product List | Glossary On
Versions: 1 2 3 4 5 6 7 8 9 10 11 12 13 14 15 16 17 18 19 20 21 22 23 24 25 26 27 28 29 30 31 32 33 34 35 36 37 38 39 40 41 42 43 44 45 46 47 48 49 50
000
ASUS43 KDMX 272003
RWRIA

WEATHER ROUNDUP FOR IOWA
NATIONAL WEATHER SERVICE DES MOINES IA
300 PM CDT FRI MAY 27 2016

NOTE: "FAIR" INDICATES FEW OR NO CLOUDS BELOW 12,000 FEET WITH NO
SIGNIFICANT WEATHER AND/OR OBSTRUCTIONS TO VISIBILITY.

* - THESE STATIONS ARE NOT NWS STATIONS...THUS NOT UNDER NWS
QUALITY CONTROL.  THEY ALSO DO NOT REPORT WEATHER SUCH
AS PRECIPITATION OR FOG.

IAZ001>003-012>014-020>022-031>034-043>046-272100-
   NORTHWEST IOWA

CITY           SKY/WX    TMP DP  RH WIND       PRES   REMARKS
CARROLL *      MOSUNNY   73  61  64 CALM      29.76S
CHEROKEE *     PTSUNNY   75  61  60 CALM      29.75F
DENISON *      PTSUNNY   73  59  60 VRB5G12   29.73F
LE MARS *      MOSUNNY   73  59  60 SW3       29.76F
ORANGE CITY *  MOSUNNY   72  57  60 SW10      29.77F
SHELDON *      PTSUNNY   73  57  56 SW9       29.76S
SIOUX CITY     CLOUDY    76  60  57 SE5       29.74F
SPENCER        CLOUDY    75  56  51 SW13      29.76S
STORM LAKE *     N/A     75  57  53 VRB5G12   29.76F
$$

IAZ055>058-069>071-079>083-090>094-272100-
   SOUTHWEST IOWA

CITY           SKY/WX    TMP DP  RH WIND       PRES   REMARKS
ATLANTIC *     PTSUNNY   73  63  68 VRB6G13   29.75F
AUDUBON *        N/A     73  64  73 S5        29.77F
CLARINDA *       N/A     75  63  64 MISG      29.77S
COUNCIL BLFS * MOSUNNY   73  59  60 CALM      29.75F
CRESTON *      CLOUDY    72  64  78 NW8       29.79R
HARLAN  *      MOSUNNY   73  61  64 S6        29.79S
LAMONI         SUNNY     75  65  70 NW6       29.76S
RED OAK *      MOSUNNY   73  63  68 VRB3      29.75F
SHENANDOAH *   SUNNY     75  63  64 CALM      29.75F
$$

IAZ047>049-059>061-072>074-084-272100-
   CENTRAL IOWA

CITY           SKY/WX    TMP DP  RH WIND       PRES   REMARKS
AMES           CLOUDY    72  65  78 SW12      29.75F
ANKENY *       MOSUNNY   72  66  83 SW6G12    29.75F
BOONE *        CLOUDY    72  64  78 VRB5      29.75F
CHARITON *     MOSUNNY   77  66  69 W9G16     29.76S
DES MOINES     PTSUNNY   74  64  71 W8        29.75S
GRINNELL*      MOSUNNY   77  68  73 W13       29.74S
KNOXVILLE *    PTSUNNY   77  66  69 W12       29.74R
MARSHALLTOWN   MOSUNNY   72  67  84 W16       29.74S
NEWTON *       MOSUNNY   75  68  78 W16       29.74S
PERRY *        PTSUNNY   72  66  83 CALM      29.76F
$$

IAZ004>006-015-016-023>025-035-036-272100-
   NORTH CENTRAL IOWA

CITY           SKY/WX    TMP DP  RH WIND       PRES   REMARKS
ALGONA *       PTSUNNY   72  59  64 VRB6      29.77S
CLARION *      PTSUNNY   72  63  73 VRB5      29.76S
ESTHERVILLE    CLOUDY    71  57  61 S8        29.76S
FORT DODGE *   CLOUDY    72  61  68 W5        29.77S
MASON CITY     CLOUDY    68  64  87 E3        29.77F
FOREST CITY *  CLOUDY    68  61  77 CALM      29.77R
WEBSTER CITY * PTSUNNY   72  63  73 S3        29.75S
IOWA FALLS *   PTSUNNY   73  66  78 SW6       29.76S
$$

IAZ007>011-017>019-026>030-037>042-050>054-066-272100-
   NORTHEAST IOWA

CITY           SKY/WX    TMP DP  RH WIND       PRES   REMARKS
CEDAR RAPIDS   MOSUNNY   79  69  71 S14G22    29.72F HX  81
CHARLES CITY * PTSUNNY   68  68 100 S7        29.75F
CLINTON *      LGT RAIN  72  68  87 S15       29.80S
DECORAH *      CLOUDY    72  66  83 SE8G16    29.75F
DUBUQUE        CLOUDY    75  66  73 S16       29.78F
MONTICELLO *   CLOUDY    79  64  61 S20G30    29.74F HX  81
OELWEIN *        N/A     70  68  94 CALM      29.76R
WATERLOO       CLOUDY    72  67  84 CALM      29.73S
$$

IAZ064-065-067-068-078-272100-
   EAST CENTRAL IOWA

CITY           SKY/WX    TMP DP  RH WIND       PRES   REMARKS
DAVENPORT      CLOUDY    72  66  81 S21       29.80S
IOWA CITY      CLOUDY    79  69  71 S17G24    29.75F HX  81
MT. PLEASANT * CLOUDY    81  70  69 S14       29.77S HX  84
MUSCATINE *    CLOUDY    72  68  88 S10G17    29.78S
QUAD CITIES    CLOUDY    74  67  78 S15       29.79S
$$

IAZ062-063-075>077-085>089-095>099-272100-
   SOUTHEAST IOWA

CITY           SKY/WX    TMP DP  RH WIND       PRES   REMARKS
BURLINGTON     CLOUDY    74  69  85 S12       29.78S
FAIRFIELD *      N/A    N/A N/A N/A MISG        N/A
FORT MADISON * CLOUDY    75  68  78 S9        29.79S
KEOKUK *       CLOUDY    77  68  73 S14       29.77S
OSKALOOSA *      N/A     82  63  51 SW14G23   29.74R HX  83
OTTUMWA        PTSUNNY   81  66  60 S15       29.74R HX  83
WASHINGTON *   PTSUNNY   81  81 100 S16       29.77S HX  91
$$

ABBREVIATIONS USED IN REMARKS
   TC - TEMPERATURES IN CELSIUS
  WCI - WIND CHILL INDEX
   HX - HEAT INDEX
  VSB - VISIBILITY
$$





USA.gov is the U.S. government's official web portal to all federal, state and local government web resources and services.